Location: C�mpuri de-Sus
(45.9500°N, 22.5500°E)
Time: 01:41:50
(UTC+00:00)

Cosmos 839 Rocket - Pass Details

Date: 07 June 2022
Orbit: 968 x 2085 km, 65.9° (Epoch: 06 July)

Event Time Altitude Azimuth Distance (km) Brightness Sun altitude
Rises 19:31:54 0° 327° (NNW) 3,679 9.1 -10.4°
Reaches altitude 10° 19:34:33 10° 335° (NNW) 2,764 7.8 -10.7°
Maximum altitude 19:40:29 40° 45° (NE) 1,550 5.1 -11.4°
Drops below altitude 10° 19:47:21 10° 113° (ESE) 3,199 6.2 -12.1°
Enters shadow 19:47:21 10° 113° (ESE) 3,203 6.2 -12.1°
